Location: Amsterdam
(30.7274°N, 84.4357°W)
Time: 10:38:52
(UTC+00:00)

Vanguard 2 Rocket - All Passes

Search period start: 16 February 2026 00:00
Search period end: 26 February 2026 00:00
Orbit: 553 x 3286 km, 32.9° (Epoch: 15 February)

Date Brightness Start Highest point End Pass type
(mag) Time Alt. Az. Time Alt. Az. Time Alt. Az.
16 Feb - 01:37:24 10° W 01:42:08 20° SW 01:45:40 10° S visible
16 Feb - 15:19:01 10° SSW 15:35:44 35° SE 15:50:21 10° E daylight
16 Feb - 17:32:59 10° SW 17:52:40 68° SSE 18:06:13 10° ENE daylight
16 Feb - 19:51:44 10° W 20:09:22 84° N 20:19:29 10° E daylight
16 Feb - 22:11:39 10° W 22:24:45 86° N 22:31:50 10° E daylight
17 Feb - 00:29:50 10° W 00:37:47 40° SW 00:42:44 10° SE visible
17 Feb - 14:14:45 10° S 14:28:34 24° SE 14:41:58 10° E daylight
17 Feb - 16:25:55 10° SW 16:45:15 56° SSE 17:00:22 10° ENE daylight
17 Feb - 18:43:03 10° WSW 19:02:26 88° SSE 19:14:30 10° ENE daylight
17 Feb - 21:03:06 10° W 21:18:44 81° N 21:27:20 10° E daylight
17 Feb - 23:22:12 10° WNW 23:33:00 64° SSW 23:39:03 10° SE daylight
18 Feb - 01:41:31 10° WSW 01:44:28 13° SW 01:46:57 10° SSW visible
18 Feb - 13:13:03 10° SSE 13:21:40 15° SE 13:30:30 10° ESE daylight
18 Feb - 15:19:51 10° SSW 15:37:48 44° SE 15:53:46 10° E daylight
18 Feb - 17:34:55 10° WSW 17:55:04 78° SSE 18:09:08 10° ENE daylight
18 Feb - 19:54:14 10° W 20:12:10 82° N 20:22:33 10° E daylight
18 Feb - 22:14:08 10° WNW 22:27:37 84° SSW 22:34:55 10° ESE daylight
19 Feb - 00:32:48 10° W 00:40:13 29° SW 00:45:05 10° SSE visible
19 Feb - 14:14:55 10° SSW 14:30:33 32° SE 14:46:04 10° E daylight
19 Feb - 16:27:35 10° SW 16:47:27 66° SSE 17:03:19 10° ENE daylight
19 Feb - 18:45:26 10° WSW 19:05:03 86° NNW 19:17:28 10° E daylight
19 Feb - 21:05:36 10° W 21:21:37 85° N 21:30:27 10° E daylight
19 Feb - 23:24:48 10° WNW 23:35:36 50° SSW 23:41:48 10° SE daylight
20 Feb - 13:11:33 10° S 13:23:38 21° SE 13:36:31 10° E daylight
20 Feb - 15:21:10 10° SW 15:39:49 54° SSE 15:56:50 10° ENE daylight
20 Feb - 17:37:07 10° WSW 17:57:31 86° SSE 18:12:03 10° ENE daylight
20 Feb - 19:56:45 10° W 20:14:58 82° N 20:25:39 10° E daylight
20 Feb - 22:16:35 10° WNW 22:30:21 72° SSW 22:37:53 10° ESE daylight
21 Feb - 00:36:08 10° W 00:42:28 21° SW 00:46:59 10° S visible
21 Feb - 12:12:23 10° SE 12:17:06 11° SE 12:22:03 10° ESE daylight
21 Feb - 14:15:48 10° SSW 14:32:25 41° SE 14:49:28 10° E daylight
21 Feb - 16:29:33 10° WSW 16:49:42 76° SSE 17:06:08 10° ENE daylight
21 Feb - 18:47:55 10° W 19:07:45 83° N 19:20:29 10° E daylight
21 Feb - 21:08:02 10° WNW 21:24:24 87° SSW 21:33:30 10° ESE daylight
21 Feb - 23:27:29 10° W 23:37:58 39° SW 23:44:17 10° SSE daylight
22 Feb - 13:11:38 10° S 13:25:27 29° SE 13:40:49 10° E daylight
22 Feb - 15:22:53 10° SW 15:41:50 64° SSE 15:59:41 10° ENE daylight
22 Feb - 17:39:30 10° WSW 18:00:01 88° NNW 18:14:56 10° E daylight
22 Feb - 19:59:14 10° W 20:17:46 85° N 20:28:42 10° E daylight
22 Feb - 22:19:01 10° WNW 22:32:53 59° SSW 22:40:39 10° SE daylight
23 Feb - 00:40:19 10° W 00:44:34 14° SW 00:47:59 10° SSW visible
23 Feb - 12:09:23 10° SSE 12:18:58 18° SE 12:29:50 10° E daylight
23 Feb - 14:17:11 10° SSW 14:34:15 51° SE 14:52:30 10° ENE daylight
23 Feb - 16:31:47 10° WSW 16:51:59 84° SSE 17:08:56 10° ENE daylight
23 Feb - 18:50:27 10° W 19:10:27 82° N 19:23:29 10° E daylight
23 Feb - 21:10:25 10° WNW 21:27:04 78° SSW 21:36:26 10° ESE daylight
23 Feb - 23:30:25 10° W 23:40:09 29° SW 23:46:24 10° SSE daylight
24 Feb - 13:12:32 10° SSW 13:27:10 37° SE 13:44:18 10° E daylight
24 Feb - 15:24:55 10° SW 15:43:55 73° SSE 16:02:25 10° ENE daylight
24 Feb - 17:42:02 10° W 18:02:35 84° N 18:17:50 10° E daylight
24 Feb - 20:01:41 10° WNW 20:20:28 90° S 20:31:42 10° ESE daylight
24 Feb - 22:21:32 10° WNW 22:35:12 48° SW 22:43:11 10° SE daylight
25 Feb - 12:09:12 10° S 12:20:41 25° SE 12:34:36 10° E daylight
25 Feb - 14:18:59 10° SW 14:36:08 60° SSE 14:55:15 10° ENE daylight
25 Feb - 16:34:13 10° WSW 16:54:22 90° NNW 17:11:43 10° ENE daylight
25 Feb - 18:53:00 10° W 19:13:09 84° N 19:26:29 10° E daylight
25 Feb - 21:12:47 10° WNW 21:29:32 67° SSW 21:39:12 10° SE daylight
25 Feb - 23:33:47 10° W 23:42:08 21° SW 23:48:01 10° S daylight
